Time,TemperatureF,DewpointF,PressureIn,WindDirection,WindDirectionDegrees,WindSpeedMPH,WindSpeedGustMPH,Humidity,HourlyPrecipIn,Conditions,Clouds,dailyrainin,SoftwareType,DateUTC
2013-04-29 00:08:00,35.6,29.7,29.52,East,90,0.0,-999.0,79,-99.99,,,0.00,Acu-Link.com,2013-04-29 07:08:00,
2013-04-29 00:23:00,35.6,30.7,29.53,NNW,337,0.0,-999.0,82,-99.99,,,0.00,Acu-Link.com,2013-04-29 07:23:00,
2013-04-29 00:38:00,33.8,29.5,29.53,East,90,1.1,-999.0,84,-99.99,,,0.00,Acu-Link.com,2013-04-29 07:38:00,
2013-04-29 00:53:00,33.8,30.1,29.53,ENE,67,0.0,-999.0,86,-99.99,,,0.00,Acu-Link.com,2013-04-29 07:53:00,
2013-04-29 01:09:00,33.8,30.1,29.51,ESE,112,0.0,-999.0,86,-99.99,,,0.00,Acu-Link.com,2013-04-29 08:09:00,
2013-04-29 01:24:00,33.8,30.3,29.51,NE,45,0.0,-999.0,87,-99.99,,,0.00,Acu-Link.com,2013-04-29 08:24:00,
2013-04-29 01:39:00,33.8,30.3,29.51,West,270,0.0,-999.0,87,-99.99,,,0.00,Acu-Link.com,2013-04-29 08:39:00,
2013-04-29 01:54:00,32.0,29.1,29.51,SSE,157,0.0,-999.0,89,-99.99,,,0.00,Acu-Link.com,2013-04-29 08:54:00,
2013-04-29 02:10:00,32.0,29.4,29.52,East,90,3.6,-999.0,90,-99.99,,,0.00,Acu-Link.com,2013-04-29 09:10:00,
2013-04-29 02:25:00,32.0,28.3,29.54,NW,315,2.7,-999.0,86,-99.99,,,0.00,Acu-Link.com,2013-04-29 09:25:00,
2013-04-29 02:40:00,32.0,28.3,29.55,ENE,67,1.6,-999.0,86,-99.99,,,0.00,Acu-Link.com,2013-04-29 09:40:00,
2013-04-29 02:55:00,32.0,28.6,29.55,ESE,112,0.0,-999.0,87,-99.99,,,0.00,Acu-Link.com,2013-04-29 09:55:00,
2013-04-29 03:10:00,30.2,26.8,29.56,NW,315,2.7,-999.0,87,-99.99,,,0.00,Acu-Link.com,2013-04-29 10:10:00,
2013-04-29 03:25:00,30.2,26.2,29.56,NW,315,1.6,-999.0,85,-99.99,,,0.00,Acu-Link.com,2013-04-29 10:25:00,
2013-04-29 03:40:00,30.2,26.0,29.57,NW,315,2.0,-999.0,84,-99.99,,,0.00,Acu-Link.com,2013-04-29 10:40:00,
2013-04-29 03:55:00,30.2,26.0,29.58,East,90,0.0,-999.0,84,-99.99,,,0.00,Acu-Link.com,2013-04-29 10:55:00,
2013-04-29 04:10:00,30.2,26.0,29.59,ESE,112,0.0,-999.0,84,-99.99,,,0.00,Acu-Link.com,2013-04-29 11:10:00,
2013-04-29 04:41:00,28.4,24.5,29.60,East,90,1.6,-999.0,85,-99.99,,,0.00,Acu-Link.com,2013-04-29 11:41:00,
2013-04-29 04:56:00,28.4,24.5,29.61,ESE,112,0.0,-999.0,85,-99.99,,,0.00,Acu-Link.com,2013-04-29 11:56:00,
2013-04-29 05:11:00,28.4,24.5,29.61,ESE,112,0.0,-999.0,85,-99.99,,,0.00,Acu-Link.com,2013-04-29 12:11:00,
2013-04-29 05:26:00,28.4,24.8,29.62,East,90,0.0,-999.0,86,-99.99,,,0.00,Acu-Link.com,2013-04-29 12:26:00,
2013-04-29 05:41:00,28.4,24.5,29.63,West,270,0.0,-999.0,85,-99.99,,,0.00,Acu-Link.com,2013-04-29 12:41:00,
2013-04-29 05:56:00,28.4,24.5,29.63,NE,45,0.0,-999.0,85,-99.99,,,0.00,Acu-Link.com,2013-04-29 12:56:00,
2013-04-29 06:11:00,28.4,24.2,29.63,NNW,337,2.0,-999.0,84,-99.99,,,0.00,Acu-Link.com,2013-04-29 13:11:00,
2013-04-29 06:26:00,28.4,23.9,29.64,ESE,112,0.0,-999.0,83,-99.99,,,0.00,Acu-Link.com,2013-04-29 13:26:00,
2013-04-29 06:41:00,28.4,23.3,29.65,ESE,112,0.0,-999.0,81,-99.99,,,0.00,Acu-Link.com,2013-04-29 13:41:00,
2013-04-29 06:56:00,30.2,25.4,29.65,South,180,0.0,-999.0,82,-99.99,,,0.00,Acu-Link.com,2013-04-29 13:56:00,
2013-04-29 07:11:00,30.2,24.5,29.66,SSW,202,0.0,-999.0,79,-99.99,,,0.00,Acu-Link.com,2013-04-29 14:11:00,
2013-04-29 07:26:00,30.2,23.9,29.66,ENE,67,0.0,-999.0,77,-99.99,,,0.00,Acu-Link.com,2013-04-29 14:26:00,
2013-04-29 07:42:00,30.2,23.2,29.67,ESE,112,1.6,-999.0,75,-99.99,,,0.00,Acu-Link.com,2013-04-29 14:42:00,
2013-04-29 07:57:00,30.2,21.9,29.67,SE,135,1.6,-999.0,71,-99.99,,,0.00,Acu-Link.com,2013-04-29 14:57:00,
2013-04-29 08:12:00,30.2,21.3,51.41,NNW,337,1.1,-999.0,69,-99.99,,,0.00,Acu-Link.com,2013-04-29 15:12:00,
2013-04-29 08:27:00,32.0,22.3,29.68,NW,315,1.6,-999.0,67,-99.99,,,0.00,Acu-Link.com,2013-04-29 15:27:00,
2013-04-29 08:42:00,32.0,21.2,29.68,ENE,67,4.0,-999.0,64,-99.99,,,0.00,Acu-Link.com,2013-04-29 15:42:00,
2013-04-29 08:57:00,33.8,21.0,29.68,WNW,292,3.1,-999.0,59,-99.99,,,0.00,Acu-Link.com,2013-04-29 15:57:00,
2013-04-29 09:12:00,32.0,21.9,29.69,SW,225,3.6,-999.0,66,-99.99,,,0.00,Acu-Link.com,2013-04-29 16:12:00,
2013-04-29 09:27:00,32.0,21.6,29.69,East,90,3.6,-999.0,65,-99.99,,,0.00,Acu-Link.com,2013-04-29 16:27:00,
2013-04-29 09:42:00,32.0,20.9,29.70,NW,315,1.6,-999.0,63,-99.99,,,0.00,Acu-Link.com,2013-04-29 16:42:00,
2013-04-29 09:57:00,33.8,21.4,29.70,ESE,112,1.1,-999.0,60,-99.99,,,0.00,Acu-Link.com,2013-04-29 16:57:00,
2013-04-29 10:13:00,33.8,21.0,29.70,North,0,2.7,-999.0,59,-99.99,,,0.00,Acu-Link.com,2013-04-29 17:13:00,
2013-04-29 10:28:00,35.6,20.2,29.69,WSW,247,2.7,-999.0,53,-99.99,,,0.00,Acu-Link.com,2013-04-29 17:28:00,
2013-04-29 10:43:00,35.6,21.5,29.70,SE,135,2.7,-999.0,56,-99.99,,,0.00,Acu-Link.com,2013-04-29 17:43:00,
2013-04-29 10:58:00,37.4,22.3,29.70,NNW,337,3.6,-999.0,54,-99.99,,,0.00,Acu-Link.com,2013-04-29 17:58:00,
2013-04-29 11:13:00,39.2,22.6,29.71,ESE,112,5.1,-999.0,51,-99.99,,,0.00,Acu-Link.com,2013-04-29 18:13:00,
2013-04-29 11:28:00,41.0,22.8,29.70,NW,315,2.7,-999.0,48,-99.99,,,0.00,Acu-Link.com,2013-04-29 18:28:00,
2013-04-29 11:43:00,37.4,22.7,29.71,ESE,112,0.0,-999.0,55,-99.99,,,0.01,Acu-Link.com,2013-04-29 18:43:00,
2013-04-29 11:58:00,35.6,26.8,29.72,WNW,292,3.1,-999.0,70,-99.99,,,0.01,Acu-Link.com,2013-04-29 18:58:00,
2013-04-29 12:13:00,41.0,25.2,29.72,NNW,337,2.7,-999.0,53,-99.99,,,0.01,Acu-Link.com,2013-04-29 19:13:00,
2013-04-29 12:28:00,41.0,23.8,29.71,NW,315,6.7,-999.0,50,-99.99,,,0.01,Acu-Link.com,2013-04-29 19:28:00,
2013-04-29 12:44:00,35.6,20.6,29.72,NNW,337,2.7,-999.0,54,-99.99,,,0.01,Acu-Link.com,2013-04-29 19:44:00,
2013-04-29 12:59:00,41.0,25.2,29.72,ENE,67,4.7,-999.0,53,-99.99,,,0.01,Acu-Link.com,2013-04-29 19:59:00,
2013-04-29 13:14:00,41.0,22.8,29.71,West,270,3.6,-999.0,48,-99.99,,,0.01,Acu-Link.com,2013-04-29 20:14:00,
2013-04-29 13:30:00,41.0,23.3,29.72,NNE,22,7.8,-999.0,49,-99.99,,,0.01,Acu-Link.com,2013-04-29 20:30:00,
2013-04-29 13:45:00,35.6,23.1,29.73,SW,225,2.7,-999.0,60,-99.99,,,0.01,Acu-Link.com,2013-04-29 20:45:00,
2013-04-29 14:00:00,37.4,24.0,29.73,NNW,337,3.6,-999.0,58,-99.99,,,0.01,Acu-Link.com,2013-04-29 21:00:00,
2013-04-29 14:15:00,33.8,26.4,29.75,South,180,2.0,-999.0,74,-99.99,,,0.01,Acu-Link.com,2013-04-29 21:15:00,
2013-04-29 14:30:00,39.2,25.3,29.73,NW,315,3.1,-999.0,57,-99.99,,,0.01,Acu-Link.com,2013-04-29 21:30:00,
2013-04-29 14:45:00,41.0,26.9,29.74,WNW,292,3.6,-999.0,57,-99.99,,,0.01,Acu-Link.com,2013-04-29 21:45:00,
2013-04-29 15:00:00,39.2,24.0,29.74,WSW,247,0.0,-999.0,54,-99.99,,,0.01,Acu-Link.com,2013-04-29 22:00:00,
2013-04-29 15:15:00,33.8,26.7,29.75,West,270,3.1,-999.0,75,-99.99,,,0.01,Acu-Link.com,2013-04-29 22:15:00,
2013-04-29 15:30:00,33.8,28.3,29.75,West,270,1.6,-999.0,80,-99.99,,,0.01,Acu-Link.com,2013-04-29 22:30:00,
2013-04-29 15:46:00,35.6,29.7,29.75,ESE,112,1.1,-999.0,79,-99.99,,,0.01,Acu-Link.com,2013-04-29 22:46:00,
2013-04-29 16:01:00,39.2,29.5,29.74,SW,225,2.0,-999.0,68,-99.99,,,0.02,Acu-Link.com,2013-04-29 23:01:00,
2013-04-29 16:16:00,42.8,28.2,29.73,WSW,247,2.0,-999.0,56,-99.99,,,0.02,Acu-Link.com,2013-04-29 23:16:00,
2013-04-29 16:31:00,44.6,26.1,29.73,NNW,337,0.0,-999.0,48,-99.99,,,0.02,Acu-Link.com,2013-04-29 23:31:00,
2013-04-29 16:46:00,41.0,23.8,29.74,West,270,4.7,-999.0,50,-99.99,,,0.02,Acu-Link.com,2013-04-29 23:46:00,
2013-04-29 17:01:00,35.6,24.6,29.76,NNE,22,3.1,-999.0,64,-99.99,,,0.02,Acu-Link.com,2013-04-30 00:01:00,
2013-04-29 17:16:00,33.8,26.1,29.76,WNW,292,1.1,-999.0,73,-99.99,,,0.02,Acu-Link.com,2013-04-30 00:16:00,
2013-04-29 17:31:00,35.6,25.7,29.76,East,90,1.1,-999.0,67,-99.99,,,0.02,Acu-Link.com,2013-04-30 00:31:00,
2013-04-29 17:46:00,39.2,27.3,29.76,WNW,292,2.7,-999.0,62,-99.99,,,0.02,Acu-Link.com,2013-04-30 00:46:00,
2013-04-29 18:01:00,35.6,25.0,29.77,NNW,337,4.7,-999.0,65,-99.99,,,0.02,Acu-Link.com,2013-04-30 01:01:00,
2013-04-29 18:16:00,37.4,26.7,29.77,SSW,202,0.0,-999.0,65,-99.99,,,0.02,Acu-Link.com,2013-04-30 01:16:00,
2013-04-29 18:31:00,35.6,24.6,29.78,NNE,22,0.0,-999.0,64,-99.99,,,0.02,Acu-Link.com,2013-04-30 01:31:00,
2013-04-29 18:46:00,35.6,25.0,29.79,NE,45,0.0,-999.0,65,-99.99,,,0.02,Acu-Link.com,2013-04-30 01:46:00,
2013-04-29 19:01:00,33.8,24.7,29.80,ESE,112,1.1,-999.0,69,-99.99,,,0.02,Acu-Link.com,2013-04-30 02:01:00,
2013-04-29 19:16:00,32.0,24.7,29.80,SE,135,1.6,-999.0,74,-99.99,,,0.02,Acu-Link.com,2013-04-30 02:16:00,
2013-04-29 19:31:00,32.0,25.3,29.80,South,180,0.0,-999.0,76,-99.99,,,0.02,Acu-Link.com,2013-04-30 02:31:00,
2013-04-29 19:46:00,32.0,25.3,29.79,South,180,1.6,-999.0,76,-99.99,,,0.02,Acu-Link.com,2013-04-30 02:46:00,
2013-04-29 20:02:00,32.0,25.3,29.80,SSE,157,1.6,-999.0,76,-99.99,,,0.02,Acu-Link.com,2013-04-30 03:02:00,
2013-04-29 20:17:00,32.0,25.3,29.80,ENE,67,0.0,-999.0,76,-99.99,,,0.02,Acu-Link.com,2013-04-30 03:17:00,
2013-04-29 20:32:00,30.2,24.5,29.81,ENE,67,0.0,-999.0,79,-99.99,,,0.02,Acu-Link.com,2013-04-30 03:32:00,
2013-04-29 20:47:00,30.2,24.5,29.81,WSW,247,0.0,-999.0,79,-99.99,,,0.02,Acu-Link.com,2013-04-30 03:47:00,
2013-04-29 21:02:00,30.2,25.1,29.81,East,90,0.0,-999.0,81,-99.99,,,0.02,Acu-Link.com,2013-04-30 04:02:00,
2013-04-29 21:17:00,30.2,25.1,29.82,East,90,0.0,-999.0,81,-99.99,,,0.02,Acu-Link.com,2013-04-30 04:17:00,
2013-04-29 21:32:00,30.2,25.7,29.82,West,270,0.0,-999.0,83,-99.99,,,0.02,Acu-Link.com,2013-04-30 04:32:00,
2013-04-29 21:47:00,30.2,25.7,29.82,East,90,0.0,-999.0,83,-99.99,,,0.02,Acu-Link.com,2013-04-30 04:47:00,
2013-04-29 22:02:00,30.2,25.7,29.84,WNW,292,0.0,-999.0,83,-99.99,,,0.02,Acu-Link.com,2013-04-30 05:02:00,
2013-04-29 22:17:00,28.4,23.6,29.84,East,90,0.0,-999.0,82,-99.99,,,0.02,Acu-Link.com,2013-04-30 05:17:00,
2013-04-29 22:32:00,28.4,23.9,29.84,SE,135,0.0,-999.0,83,-99.99,,,0.02,Acu-Link.com,2013-04-30 05:32:00,
2013-04-29 22:47:00,28.4,23.9,29.85,ESE,112,0.0,-999.0,83,-99.99,,,0.02,Acu-Link.com,2013-04-30 05:47:00,
2013-04-29 23:03:00,28.4,23.9,29.85,ESE,112,0.0,-999.0,83,-99.99,,,0.02,Acu-Link.com,2013-04-30 06:03:00,
2013-04-29 23:18:00,28.4,23.9,29.85,East,90,0.0,-999.0,83,-99.99,,,0.02,Acu-Link.com,2013-04-30 06:18:00,
2013-04-29 23:33:00,28.4,24.2,29.84,NE,45,0.0,-999.0,84,-99.99,,,0.02,Acu-Link.com,2013-04-30 06:33:00,
2013-04-29 23:48:00,28.4,24.2,29.85,NNW,337,0.0,-999.0,84,-99.99,,,0.02,Acu-Link.com,2013-04-30 06:48:00,